Theta_e
308 304 301 304 305 304 303 301 300 302 305 302 302 303 305 307 305 305 306 306 308 309 314 318 321 321 322 325 325 324 325 326 325 326 325 326 326 326 330 329 325 326 329 329
303 301 306 306 305 302 301 299 299 302 303 302 303 302 305 306 306 307 307 306 308 310 312 316 319 321 322 322 323 326 323 324 322 324 327 323 327 328 328 328 329 329 327 329
303 304 305 304 302 300 301 300 300 300 301 302 300 299 302 307 305 306 308 309 309 309 311 315 317 320 321 320 320 324 325 324 323 325 328 329 330 328 326 326 325 325 327 328
304 305 303 302 302 303 299 303 302 300 299 295 300 292 300 304 305 305 307 307 308 309 312 315 317 318 321 321 321 321 323 325 323 327 330 329 327 324 326 327 329 330 328 328
302 302 302 301 302 304 302 304 302 301 299 297 297 294 298 301 302 306 310 307 308 310 312 314 316 317 320 322 324 326 325 326 325 329 330 327 326 327 329 330 328 332 330 333
305 306 306 305 306 305 306 302 299 298 297 292 297 295 296 300 303 307 309 309 308 309 311 315 317 317 319 323 323 325 327 325 326 328 328 327 325 326 326 327 326 327 328 332
302 303 305 307 303 303 304 300 293 291 292 290 295 294 298 305 307 307 308 309 308 309 311 314 314 314 317 320 323 324 325 323 324 326 329 328 325 326 323 323 325 325 327 327
296 294 302 305 305 302 301 301 294 287 288 292 295 293 298 308 309 311 311 311 309 309 311 314 315 315 316 319 323 323 323 322 322 324 327 326 326 324 322 330 325 328 327 327
296 296 303 305 306 306 298 297 302 296 294 292 295 299 305 309 309 310 308 307 307 309 311 313 315 316 317 319 322 325 325 323 322 323 326 326 325 325 323 325 328 330 329 329
301 295 302 304 306 304 303 303 295 296 288 287 292 294 297 304 306 309 308 307 307 309 311 313 315 316 318 320 321 325 327 323 321 322 325 324 323 323 324 325 328 328 327 325
304 301 297 301 301 300 299 298 298 298 296 291 290 294 307 308 310 313 312 310 308 309 311 313 315 316 318 320 319 323 326 322 322 322 323 323 322 322 324 323 325 326 326 325
304 302 296 298 303 307 305 301 302 295 294 296 295 295 308 311 314 315 313 310 310 311 312 313 315 316 316 318 319 321 326 322 322 321 322 322 322 322 323 323 324 326 327 327
304 302 295 295 302 305 300 302 303 303 302 296 293 296 309 312 313 314 313 310 309 310 311 313 314 315 315 317 318 320 324 322 320 320 321 321 321 322 322 322 323 325 326 325
307 303 298 293 296 302 300 301 302 301 297 297 297 299 306 310 311 312 313 311 310 310 311 312 313 314 316 316 318 320 323 321 319 319 321 320 321 321 322 322 323 325 325 324
306 299 300 301 301 302 301 301 302 300 301 297 300 301 306 311 313 315 314 311 309 310 311 312 313 314 316 317 318 321 323 320 320 319 321 321 320 320 321 321 322 323 325 324
303 300 301 298 300 300 298 301 302 303 302 303 303 303 312 313 316 314 311 309 308 310 311 312 313 314 315 316 318 320 322 321 320 320 320 321 317 318 320 320 321 322 323 323
302 301 297 294 298 298 294 299 300 303 305 304 300 306 311 312 314 316 313 311 311 311 311 312 313 314 316 317 319 320 322 322 320 320 320 320 317 317 319 318 319 320 322 323
303 303 300 296 298 289 301 306 304 303 305 307 307 309 312 313 317 319 318 314 314 313 313 314 315 317 318 319 320 321 322 321 320 320 319 319 316 317 318 318 319 320 320 322
300 302 301 297 296 298 301 304 302 302 303 309 308 310 312 314 316 315 318 319 318 316 317 317 317 318 318 318 320 321 320 320 319 319 319 319 316 317 318 317 318 318 318 318
302 304 300 299 295 291 302 309 310 310 300 311 312 312 312 313 307 311 319 320 319 318 318 317 317 318 319 320 321 320 319 319 319 319 320 320 317 317 318 320 318 317 318 318
296 298 294 294 296 299 306 310 311 299 302 315 314 314 314 311 315 321 321 321 323 322 318 319 317 318 320 322 322 319 319 318 320 320 321 321 319 318 320 321 319 318 316 316
294 293 293 297 293 291 308 309 305 314 315 315 315 316 315 319 319 318 319 320 321 320 319 317 316 318 320 321 321 320 320 321 321 321 320 322 321 317 318 320 319 318 318 317
294 298 296 298 298 310 313 314 318 319 317 313 317 317 317 317 317 318 318 318 320 321 320 317 316 317 318 321 321 320 321 321 320 321 321 322 322 319 318 319 319 317 318 315
297 305 301 302 304 308 311 315 316 314 314 315 317 317 317 317 317 318 318 319 320 321 320 318 317 316 316 319 320 322 321 320 319 321 322 323 322 320 319 317 318 317 316 315
296 302 303 303 307 308 310 314 314 314 315 316 316 317 317 317 317 318 319 320 320 321 321 318 316 317 317 318 319 321 322 321 321 323 323 322 322 321 320 318 317 316 321 316
302 299 299 300 308 310 312 315 315 314 314 316 317 317 319 319 319 321 321 322 322 321 321 319 317 317 318 318 318 320 320 321 322 322 322 321 321 321 321 319 318 302 301 299
Wind_Speed
8 10 16 17 12 8 9 5 5 4 5 5 9 12 17 11 11 13 14 15 14 14 10 8 7 5 5 6 6 5 5 5 5 5 4 3 5 3 2 4 4 5 3 4
7 18 12 10 9 8 6 4 5 6 4 4 10 14 16 11 9 14 17 16 17 14 11 10 9 6 5 5 5 5 4 5 5 4 3 2 3 1 3 4 5 8 4 4
19 8 12 11 9 10 6 7 4 9 2 5 7 11 9 7 5 6 11 15 16 18 16 13 11 8 6 4 3 4 4 5 5 7 5 3 3 2 3 3 3 4 4 5
11 9 13 11 13 12 11 11 7 5 4 9 1 8 7 9 11 9 11 15 17 17 15 13 12 9 7 4 1 2 3 5 4 5 5 5 5 4 3 2 2 5 4 7
14 14 16 11 11 12 9 6 5 3 7 3 4 5 4 4 9 14 13 15 17 19 18 16 14 11 8 5 2 2 3 4 3 4 5 4 4 4 2 1 3 7 5 7
17 3 10 14 7 12 4 4 3 2 2 4 7 6 4 5 8 7 6 10 16 19 18 15 14 10 8 6 4 1 2 3 1 3 4 6 7 5 4 4 3 3 2 5
10 12 5 6 8 4 8 6 5 4 5 6 3 5 9 11 14 13 13 5 14 18 18 16 15 12 9 8 6 3 1 2 1 3 4 5 5 5 4 4 4 4 3 3
16 15 16 9 17 12 13 12 8 5 4 7 3 5 6 8 5 5 7 4 13 18 17 16 16 13 11 9 8 5 3 2 0 1 4 4 5 4 4 6 5 5 5 4
18 19 5 14 9 16 7 8 5 8 1 4 3 5 11 6 9 4 3 8 13 18 18 17 16 13 11 9 8 7 5 4 1 1 2 3 5 6 6 5 5 5 3 3
7 9 14 11 10 8 13 12 6 3 5 7 5 3 7 13 10 2 5 9 13 16 16 15 14 13 11 9 6 7 6 5 3 1 1 3 4 4 5 4 5 4 2 2
14 9 4 10 16 18 8 9 3 3 4 7 8 5 5 8 4 5 6 10 15 18 18 15 14 13 12 8 7 7 8 6 5 3 2 2 4 4 5 6 5 4 5 5
20 11 15 10 3 16 22 18 15 10 9 4 5 10 5 7 3 5 3 7 11 17 17 14 14 13 11 10 8 8 8 7 6 5 4 2 4 5 6 6 7 6 7 7
14 12 13 13 5 3 13 12 14 6 3 12 12 7 2 4 1 5 9 13 14 17 16 14 14 14 13 11 8 9 9 8 7 6 5 4 4 4 6 6 6 6 7 8
20 10 24 19 12 13 11 12 15 16 10 10 12 14 7 8 5 8 12 12 15 17 17 15 14 14 14 12 10 9 9 9 8 7 6 5 4 4 5 5 6 6 6 8
17 19 16 20 14 18 19 18 17 16 15 13 12 11 13 11 8 7 8 13 14 18 18 18 16 15 14 13 11 10 10 11 10 9 7 6 5 5 5 6 6 6 6 7
3 9 14 17 17 21 22 21 19 21 20 17 15 15 9 6 7 8 10 13 14 18 20 18 17 17 16 15 13 11 11 12 11 10 9 7 6 6 6 6 6 6 7 7
6 8 8 16 12 17 20 25 23 18 15 15 15 17 10 9 11 12 14 16 17 18 19 20 21 18 16 16 14 13 12 12 11 10 9 10 9 8 8 8 7 7 7 7
6 7 3 6 11 13 1 10 22 20 18 19 16 16 17 16 16 11 13 17 15 16 17 19 17 18 18 15 15 13 12 13 12 11 11 10 10 10 9 9 8 7 6 6
2 4 5 6 9 3 4 4 12 15 16 17 21 19 13 8 7 9 12 15 17 20 18 18 18 17 17 18 16 14 13 13 13 13 13 13 11 10 10 9 9 8 7 7
8 1 3 4 9 18 7 8 6 10 11 15 19 17 15 12 11 12 15 15 14 15 15 17 18 17 17 17 17 16 15 15 15 15 15 14 13 12 11 10 10 7 7 7
6 4 9 6 5 4 5 9 14 14 6 9 18 17 14 14 16 6 11 12 13 13 16 15 18 19 19 18 18 18 17 17 16 15 15 15 14 13 12 10 8 8 8 7
11 7 7 5 8 13 6 11 13 6 3 7 13 15 18 19 9 7 7 8 6 9 14 18 17 17 17 19 19 19 18 18 16 15 15 16 14 12 10 12 10 9 9 8
9 10 11 8 6 4 18 11 15 6 6 7 11 11 15 13 15 11 10 7 6 7 11 15 16 16 16 18 19 20 20 18 17 16 16 15 15 13 12 13 11 9 10 8
18 7 11 10 16 10 13 12 8 6 3 3 6 12 13 12 8 11 8 5 7 7 9 12 16 17 18 19 20 21 19 20 19 17 16 14 14 14 12 10 10 9 9 9
14 12 14 12 10 5 6 14 6 7 6 8 5 7 10 9 8 6 5 6 7 7 9 12 15 15 18 20 20 19 20 20 18 16 15 15 13 14 12 11 11 11 10 10
5 14 10 12 7 9 10 15 16 15 14 12 12 9 6 9 9 8 6 5 6 8 9 12 14 14 16 18 18 20 22 21 20 17 14 14 13 12 11 11 10 9 8 11
Wind_Direction
179 192 210 206 204 229 239 230 245 246 250 253 264 272 275 278 235 218 203 197 197 202 194 184 185 204 240 265 280 310 317 349 347 346 343 334 360 2 332 41 5 335 280 143
160 217 202 188 196 204 206 224 241 271 268 228 286 274 273 264 244 221 210 200 198 190 189 184 186 198 228 276 288 286 316 339 338 326 323 298 334 347 6 16 357 5 145 132
203 199 164 178 173 192 196 216 213 286 320 243 285 277 268 277 251 231 222 213 200 192 186 184 182 196 217 259 287 302 314 326 342 343 348 312 159 80 50 34 3 356 58 98
208 163 169 181 202 202 223 218 244 247 269 292 242 293 287 284 283 254 226 207 199 192 191 181 179 188 207 232 248 303 357 344 8 354 25 28 48 55 56 21 50 64 67 67
192 175 186 191 207 182 238 168 204 229 257 303 216 245 268 290 277 267 236 210 201 190 185 182 180 184 198 210 209 287 1 3 33 31 3 355 42 66 26 44 104 85 56 88
213 163 190 206 191 191 170 136 93 96 179 247 249 228 267 239 236 258 247 201 195 187 184 181 178 176 195 210 192 192 359 25 34 39 27 19 18 35 67 107 103 103 94 56
187 201 183 194 203 137 182 196 239 233 215 272 89 200 260 262 252 254 293 236 192 183 179 178 174 180 190 207 188 189 128 70 335 301 331 31 24 42 43 40 43 42 60 37
199 207 200 175 214 203 196 207 234 235 235 299 135 233 256 255 307 290 276 235 175 178 179 182 177 180 189 199 193 190 160 153 254 341 357 33 27 34 55 59 50 59 67 64
197 219 165 185 187 197 170 200 234 248 54 263 255 248 279 279 253 235 126 161 170 178 180 182 177 181 189 193 195 195 179 167 208 2 345 35 41 27 43 68 69 66 87 101
168 194 212 192 198 198 204 159 176 187 226 249 214 267 271 296 299 157 183 188 170 176 184 184 178 182 191 194 176 193 193 180 169 152 32 37 52 33 46 65 97 96 51 33
177 194 148 171 198 204 177 199 186 237 238 254 275 262 223 258 328 318 222 198 174 176 186 186 179 183 191 187 181 185 185 171 170 175 129 78 79 71 45 62 65 68 88 90
190 199 208 195 168 224 204 205 203 222 200 238 282 270 219 232 282 289 171 178 192 177 184 185 182 181 187 188 184 188 184 179 174 172 151 120 96 94 72 59 60 53 51 79
166 203 199 215 192 160 209 195 203 210 228 219 241 251 165 243 244 163 156 166 186 172 181 187 185 186 190 187 191 190 184 175 164 164 156 141 108 101 99 77 72 79 67 64
175 185 206 212 230 194 197 187 202 199 213 220 234 252 235 219 211 189 155 173 179 178 180 186 188 191 190 186 189 187 183 170 163 162 159 153 141 112 111 104 90 98 93 87
187 213 215 216 193 194 209 211 204 209 217 220 223 222 240 223 207 201 146 159 179 176 187 189 188 193 190 183 188 186 181 175 168 166 167 161 144 134 134 122 108 98 101 99
181 209 203 206 207 213 223 220 212 215 213 232 244 243 234 196 179 160 155 161 193 185 193 189 189 189 199 187 187 185 181 181 176 174 171 159 158 154 145 135 125 117 122 119
148 148 168 217 200 221 240 226 216 213 206 216 224 238 178 197 199 187 169 181 198 190 194 193 192 187 195 198 186 187 183 177 182 180 170 165 164 164 158 152 149 145 141 138
130 139 177 157 144 217 185 214 212 213 207 213 224 240 198 211 207 189 178 184 198 192 197 201 196 188 187 193 191 185 178 182 182 180 173 171 173 170 164 163 161 152 154 152
191 110 137 174 207 269 154 183 169 194 215 212 215 226 219 199 181 229 192 189 194 192 194 196 194 191 176 185 188 185 179 183 186 181 178 176 176 176 169 170 165 160 160 164
139 296 215 154 214 231 169 190 208 174 222 202 212 211 192 172 209 228 190 199 198 198 194 190 188 186 179 181 180 182 186 184 190 184 181 179 177 179 181 175 168 166 176 179
164 152 205 196 241 274 239 165 158 195 194 195 201 206 178 189 220 212 159 185 200 186 190 186 177 185 189 171 174 185 188 195 191 182 176 176 179 181 181 171 170 171 177 173
202 186 197 190 222 240 158 150 185 189 177 200 193 188 195 216 218 202 174 179 166 180 178 187 184 187 179 175 176 182 192 195 187 181 177 176 179 183 177 174 175 181 179 185
249 227 223 218 225 91 181 174 216 191 182 192 191 188 206 230 233 231 231 210 199 190 182 183 195 184 182 180 184 184 195 188 183 184 181 178 178 184 181 181 178 181 186 193
238 256 245 221 228 222 198 227 241 200 179 181 186 178 190 213 228 243 236 223 232 215 188 181 189 186 186 186 190 197 179 185 183 186 184 179 181 183 186 190 187 192 191 198
224 209 233 238 240 227 239 220 228 189 164 165 168 186 192 194 206 229 240 212 218 201 183 186 191 195 199 187 192 189 182 180 184 185 185 184 188 187 188 199 194 199 204 202
251 223 222 233 192 214 204 207 201 195 200 183 167 163 184 197 191 189 216 232 224 206 190 196 195 203 206 194 194 190 185 183 180 184 189 188 188 188 194 195 199 228 248 201